KZ-1A R/B (49257 NORAD) Tracking and Keplerian Element Data

This shows tracking and keplerian element data for the satellite.

Feedback or suggestion? Click here.




ElementValue
Catalog49257
NameKZ-1A R/B
Epoch Orbit190
Epoch Day282.35675781
Epoch Year2021
RAAN29.3573
Inclination97.484
Eccentricity0.0125157
Argument of Perigee38.181
Mean Anonmoly322.775
Mean Motion16.14394194
Decay Rate0.07844393
L11 49257U 21086B 21282.35675781 .07844393 27934-5 10651-2 0 9994
L22 49257 97.4840 29.3573 0125157 38.1810 322.7750 16.14394194 1900

Live tracking and technical data element details for KZ-1A R/B (NORAD 49257). KZ-1A R/B can be tracked NOW for your location showing map with azimuth and elevation plus other details from your city location.

Track the satellite on the map from your city or location and see movement details for azimuth, elevation, latitude, longitude, range, height, and movement on the map or in text.







IsCatalogInMostPopularTable: catalog: 49257, numindb: 3
Update: records affected: 1



GetName: 49257 KZ-1A R/B

Hit Count: updated at: Tue, 19 Oct 2021 08:58:26 GMT